Marysville, CA

8:15 AM PDT on September 15, 2019 (GMT -0700)
Yuba County

Weather History for KMYV - August, 2019

Change the Weather History Date:

Saturday, August 17, 2019

  Actual Average Record
Temperature  
Mean Temperature 80 °F -  
Max Temperature 93 °F 93 °F 108 °F (1992)
Min Temperature 66 °F 60 °F 51 °F (2006)
Cooling Degree Days 14    
Growing Degree Days 30 (Base 50)    
Moisture  
Dew Point 56 °F    
Average Humidity 49    
Maximum Humidity 66    
Minimum Humidity 29    
Precipitation  
Precipitation 0.00 in - - ()
Sea Level Pressure  
Sea Level Pressure 29.74 in    
Wind  
Wind Speed 9 mph (SSE)    
Max Wind Speed 13 mph    
Max Gust Speed -    
Visibility 10 miles    
Events      
Averages and records for this station are not official NWS values.
T = Trace of Precipitation, MM = Missing Value Source: NWS Daily Summary

Daily Weather History Graph

Daily Weather History Graph

Search for Another Location

Airport or City:

Astronomy

Aug. 17, 2019 Rise Set
Actual Time 6:21 AM PDT 7:58 PM PDT
Civil Twilight 5:52 AM PDT 8:27 PM PDT
Nautical Twilight 5:18 AM PDT 9:01 PM PDT
Astronomical Twilight 4:41 AM PDT 9:37 PM PDT
Moon 9:29 PM PDT (8/17) 8:14 AM PDT (8/17)
Length of Visible Light 14h 34m
Length of Day
13h 37m
Waning Gibbous, 95% of the Moon is Illuminated
Aug 17
Waning Gibbous
Aug 23
Last Quarter
Aug 30
New
Sep 5
First Quarter
Sep 13
Full

Hourly Weather History & Observations

Time (PDT) Temp. Heat Index Dew Point Humidity Pressure Visibility Wind Dir Wind Speed Gust Speed Precip Events Conditions
12:53 AM 75.0 °F - 59.0 °F 57% 29.73 in 10.0 mi SSE 8.1 mph - N/A   Clear
1:53 AM 73.0 °F - 57.9 °F 59% 29.72 in 10.0 mi SSE 12.7 mph - N/A   Clear
2:53 AM 71.1 °F - 55.9 °F 59% 29.73 in 10.0 mi SE 6.9 mph - N/A   Clear
3:53 AM 69.1 °F - 55.0 °F 61% 29.73 in 10.0 mi SSE 3.5 mph - N/A   Clear
4:53 AM 69.1 °F - 54.0 °F 58% 29.74 in 10.0 mi SSE 9.2 mph - N/A   Clear
5:53 AM 66.9 °F - 55.0 °F 66% 29.75 in 10.0 mi SE 9.2 mph - N/A   Clear
6:53 AM 66.9 °F - 55.0 °F 66% 29.76 in 10.0 mi SE 6.9 mph - N/A   Clear
7:53 AM 70.0 °F - 55.0 °F 59% 29.77 in 10.0 mi SSE 8.1 mph - N/A   Clear
8:53 AM 73.0 °F - 55.9 °F 55% 29.78 in 10.0 mi SSE 11.5 mph - N/A   Clear
9:53 AM 78.1 °F - 57.0 °F 48% 29.79 in 10.0 mi South 11.5 mph - N/A   Clear
10:53 AM 82.0 °F 81.6 °F 55.9 °F 41% 29.80 in 10.0 mi South 11.5 mph - N/A   Clear
11:53 AM 84.9 °F 84.4 °F 59.0 °F 41% 29.79 in 10.0 mi SSW 8.1 mph - N/A   Clear
12:53 PM 88.0 °F 87.6 °F 60.1 °F 39% 29.78 in 10.0 mi South 6.9 mph - N/A   Clear
1:53 PM 90.0 °F 89.1 °F 59.0 °F 35% 29.76 in 10.0 mi South 11.5 mph - N/A   Clear
2:53 PM 91.0 °F 90.0 °F 57.9 °F 33% 29.75 in 10.0 mi Variable 5.8 mph - N/A   Clear
3:53 PM 93.0 °F 91.4 °F 55.9 °F 29% 29.73 in 10.0 mi South 9.2 mph - N/A   Clear
4:53 PM 91.9 °F 90.0 °F 55.0 °F 29% 29.71 in 10.0 mi SSE 10.4 mph - N/A   Clear
5:53 PM 91.0 °F 88.9 °F 55.0 °F 29% 29.70 in 10.0 mi SSE 12.7 mph - N/A   Clear
6:53 PM 86.0 °F 85.0 °F 57.9 °F 38% 29.70 in 10.0 mi SSW 10.4 mph - N/A   Clear
7:53 PM 79.0 °F - 57.0 °F 47% 29.70 in 10.0 mi South 9.2 mph - N/A   Clear
8:53 PM 73.9 °F - 57.0 °F 55% 29.71 in 10.0 mi South 10.4 mph - N/A   Clear
9:53 PM 70.0 °F - 55.9 °F 61% 29.74 in 10.0 mi SSE 9.2 mph - N/A   Clear
10:53 PM 69.1 °F - 54.0 °F 58% 29.75 in 10.0 mi SSE 10.4 mph - N/A   Clear
11:53 PM 66.9 °F - 54.0 °F 63% 29.75 in 10.0 mi SSE 12.7 mph - N/A   Clear